Вернуться в каталог

STARLINK-3711

АктивенСвязьVLEO
NORAD 52131·PAYLOAD·🇺🇸 United States

Запущен Mar 19, 2022 с Cape Canaveral Space Force Station

Loading…

Ближайшие Пролёты (ближайшие 24 часа)

TLE

СвежийSource: CelesTrak SupGP

Эпоха: Sep 15, 2026, 02:18 UTC

1 52131C 22029AV  26258.09631944  .00023081  00000+0  98361-3 0  2587
2 52131  53.2236 284.5823 0003940  63.5151 310.7142 15.22412200    12

Отслеживайте STARLINK-3711 в реальном времени с AllMySat

Download on the App Store